Clarksburg, WV

12:13 AM EST on December 13, 2019 (GMT -0500)
Benedum

Weather History for KCKB - October, 2019

Change the Weather History Date:

Wednesday, October 16, 2019

  Actual Average Record
Temperature  
Mean Temperature 54 °F -  
Max Temperature 61 °F 67 °F 84 °F (1928)
Min Temperature 46 °F 41 °F 25 °F (1939)
Degree Days  
Heating Degree Days 11    
Month to date heating degree days 61  
Growing Degree Days 4 (Base 50)    
Moisture  
Dew Point 44 °F    
Average Humidity 70    
Maximum Humidity 89    
Minimum Humidity 51    
Precipitation  
Precipitation 0.64 in - - ()
Month to date precipitation 1.48  
Year to date precipitation 33.55  
Sea Level Pressure  
Sea Level Pressure 29.73 in    
Wind  
Wind Speed 8 mph (WSW)    
Max Wind Speed 22 mph    
Max Gust Speed 32 mph    
Visibility 8 miles    
Events Rain , Thunderstorm    
Averages and records for this station are not official NWS values.
T = Trace of Precipitation, MM = Missing Value Source: NWS Daily Summary

Daily Weather History Graph

Daily Weather History Graph

Search for Another Location

Airport or City:

Astronomy

Oct. 16, 2019 Rise Set
Actual Time 7:31 AM EDT 6:40 PM EDT
Civil Twilight 7:04 AM EDT 7:07 PM EDT
Nautical Twilight 6:33 AM EDT 7:38 PM EDT
Astronomical Twilight 6:02 AM EDT 8:09 PM EDT
Moon 8:34 PM EDT (10/16) 9:59 AM EDT (10/16)
Length of Visible Light 12h 03m
Length of Day
11h 09m
Waning Gibbous, 93% of the Moon is Illuminated
Oct 16
Waning Gibbous
Oct 21
Last Quarter
Oct 27
New
Nov 4
First Quarter
Nov 12
Full

Hourly Weather History & Observations

Time (EDT) Temp. Windchill Dew Point Humidity Pressure Visibility Wind Dir Wind Speed Gust Speed Precip Events Conditions
12:53 AM 57.9 °F - 39.9 °F 51% 29.84 in 10.0 mi Calm Calm - N/A   Clear
1:53 AM 55.9 °F - 39.9 °F 55% 29.81 in 10.0 mi Calm Calm - N/A   Clear
2:53 AM 57.0 °F - 42.1 °F 57% 29.79 in 10.0 mi NW 3.5 mph - N/A   Overcast
3:53 AM 55.9 °F - 43.0 °F 62% 29.75 in 10.0 mi SE 3.5 mph - N/A   Mostly Cloudy
4:53 AM 60.1 °F - 44.1 °F 55% 29.71 in 10.0 mi Calm Calm - N/A   Mostly Cloudy
5:53 AM 60.1 °F - 45.0 °F 57% 29.70 in 10.0 mi SSE 3.5 mph - N/A   Overcast
6:09 AM 61.0 °F - 45.0 °F 56% 29.74 in 10.0 mi SW 6.9 mph - N/A Thunderstorm Overcast
6:53 AM 60.1 °F - 48.0 °F 64% 29.70 in 10.0 mi SW 11.5 mph - 0.00 in Rain Light Rain
7:53 AM 57.0 °F - 51.1 °F 81% 29.71 in 3.0 mi WNW 8.1 mph - 0.07 in Rain Heavy Rain
8:53 AM 55.9 °F - 51.1 °F 84% 29.68 in 3.0 mi Calm Calm - 0.13 in Rain Rain
9:00 AM 55.9 °F - 52.0 °F 87% 29.70 in 2.5 mi Calm Calm - 0.01 in Rain Rain
9:07 AM 55.9 °F - 53.1 °F 90% 29.69 in 4.0 mi Calm Calm - 0.02 in Rain Light Rain
9:53 AM 55.9 °F - 52.0 °F 87% 29.65 in 5.0 mi SSE 3.5 mph - 0.11 in Rain Light Rain
10:48 AM 55.4 °F - 53.6 °F 94% 29.67 in 3.0 mi South 4.6 mph - 0.09 in Rain Rain
10:53 AM 57.0 °F - 53.1 °F 87% 29.67 in 3.0 mi West 11.5 mph - 0.11 in Rain Rain
10:58 AM 55.0 °F - 51.1 °F 86% 29.69 in 1.8 mi West 16.1 mph 32.2 mph 0.07 in Rain Heavy Rain
11:07 AM 54.0 °F - 48.9 °F 83% 29.70 in 3.0 mi West 19.6 mph 28.8 mph 0.09 in Rain Light Rain
11:53 AM 52.0 °F - 48.0 °F 86% 29.70 in 5.0 mi NW 4.6 mph - 0.14 in Rain Light Rain
12:53 PM 51.1 °F - 46.0 °F 83% 29.70 in 7.0 mi West 4.6 mph - 0.05 in Rain Light Rain
1:14 PM 51.1 °F - 46.9 °F 86% 29.74 in 10.0 mi West 9.2 mph 18.4 mph 0.01 in Rain Light Rain
1:32 PM 51.1 °F - 45.0 °F 80% 29.74 in 10.0 mi WSW 10.4 mph - 0.01 in   Overcast
1:53 PM 52.0 °F - 46.0 °F 80% 29.72 in 10.0 mi WSW 10.4 mph - 0.01 in   Overcast
2:00 PM 52.0 °F - 46.0 °F 80% 29.73 in 10.0 mi WSW 12.7 mph - N/A   Overcast
2:53 PM 52.0 °F - 44.1 °F 74% 29.71 in 10.0 mi West 10.4 mph - N/A   Overcast
3:53 PM 52.0 °F - 43.0 °F 71% 29.70 in 10.0 mi West 9.2 mph - N/A   Overcast
4:48 PM 51.8 °F - 39.2 °F 62% 29.74 in 10.0 mi West 9.2 mph 23.0 mph N/A   Overcast
4:53 PM 51.1 °F - 39.0 °F 63% 29.72 in 10.0 mi West 16.1 mph 23.0 mph N/A   Overcast
5:15 PM 50.0 °F - 39.0 °F 66% 29.75 in 10.0 mi West 11.5 mph 23.0 mph N/A   Overcast
5:53 PM 48.9 °F - 37.9 °F 66% 29.75 in 10.0 mi West 12.7 mph 23.0 mph N/A   Overcast
6:12 PM 48.0 °F - 37.9 °F 68% 29.78 in 10.0 mi West 8.1 mph - N/A   Overcast
6:30 PM 48.0 °F - 37.9 °F 68% 29.78 in 10.0 mi WSW 10.4 mph 18.4 mph N/A   Overcast
6:53 PM 48.0 °F - 37.9 °F 68% 29.76 in 10.0 mi SW 10.4 mph 20.7 mph N/A   Overcast
7:53 PM 46.9 °F - 39.0 °F 74% 29.78 in 10.0 mi WSW 15.0 mph - 0.00 in Rain Light Rain
8:53 PM 46.0 °F 40.2 °F 39.0 °F 76% 29.78 in 10.0 mi WSW 12.7 mph 21.9 mph 0.00 in Rain Light Rain
9:53 PM 46.9 °F - 39.9 °F 77% 29.78 in 10.0 mi WSW 9.2 mph 24.2 mph 0.00 in Rain Light Rain
10:53 PM 46.9 °F - 39.9 °F 77% 29.78 in 10.0 mi WSW 15.0 mph 19.6 mph 0.01 in Rain Light Rain
11:53 PM 46.0 °F 41.4 °F 41.0 °F 83% 29.78 in 7.0 mi West 9.2 mph 26.5 mph 0.00 in Rain Light Rain